Location: Passau
(48.5830°N, 13.4830°E)
Time: 21:12:42
(UTC+02:00)

Vanguard 3 - Pass Details

Date: 26 May 2024
Orbit: 509 x 3231 km, 33.3° (Epoch: 16 June)

Event Time Altitude Azimuth Distance (km) Brightness Sun altitude
Rises 22:39:23 0° 261° (W) 4,707 11.4 -13.1°
Reaches altitude 10° 22:42:26 10° 252° (WSW) 4,065 10.9 -13.3°
Maximum altitude 22:52:22 34° 194° (SSW) 3,468 10.0 -14.2°
Enters shadow 23:02:57 18° 146° (SSE) 5,122 10.5 -15.1°
Drops below altitude 10° 23:06:53 10° 139° (SE) 5,934 - -15.4°
Sets 23:12:36 0° 132° (SE) 7,126 - -15.8°
